GEFSNE_500_meanwind_096.txt.gz
Wind_Speed
15 16 16 17 17 17 17 18 18 18 18 18 18 18 19 19 20 21 21 22 22 23 24 24 25 26 27 28 28 29 30 30 31 32 32 33 34 34
18 18 19 19 19 19 19 20 20 20 20 19 19 19 20 20 20 21 22 22 23 23 24 25 26 27 28 29 30 31 32 32 32 33 35 35 35 36
21 21 21 21 21 21 22 22 22 22 22 22 22 21 21 22 22 22 22 23 24 24 25 25 26 27 28 29 31 32 33 34 34 34 35 36 37 38
23 23 23 23 23 23 23 23 24 24 24 24 24 24 24 24 24 24 24 24 24 25 26 27 28 28 29 30 31 32 33 34 36 36 37 38 39 39
25 25 25 25 25 25 25 25 25 25 26 26 26 26 26 26 26 26 26 26 26 26 26 27 28 29 30 31 31 32 33 34 36 37 38 39 39 40
27 27 28 27 27 27 27 28 28 27 27 27 28 28 28 28 28 28 28 28 28 28 28 27 28 29 30 31 32 33 34 35 35 36 37 39 40 41
29 29 29 29 29 29 29 29 29 29 30 30 30 30 31 30 30 30 29 30 29 30 29 29 29 29 30 32 32 33 34 35 36 37 38 39 40 41
30 31 31 31 31 31 31 32 32 32 32 32 32 33 33 33 33 33 32 31 31 32 31 31 31 31 31 31 32 33 34 35 36 37 38 39 40 41
32 33 33 33 33 33 33 33 34 35 35 35 35 35 35 35 35 35 35 34 34 34 34 33 33 33 33 33 33 33 34 35 36 37 38 39 40 41
34 35 35 35 35 36 36 36 36 37 37 38 38 37 38 38 38 38 37 37 36 36 37 35 35 35 35 35 35 34 35 35 36 37 38 39 40 41
36 37 37 38 38 39 39 39 39 40 40 41 40 40 39 40 40 40 40 39 38 38 39 39 37 37 37 37 37 36 36 37 37 37 38 39 41 42
39 39 40 41 41 42 43 43 42 43 44 44 44 43 42 42 43 43 43 43 42 41 41 42 41 40 39 38 38 38 38 38 38 38 39 40 41 42
42 42 42 43 44 45 46 46 46 47 47 47 46 46 46 46 46 46 46 46 46 44 44 45 44 43 42 40 40 40 40 39 39 40 40 41 41 42
44 45 46 47 48 48 49 50 50 50 50 50 50 49 50 49 49 49 48 48 47 47 46 47 46 46 45 43 41 41 41 41 40 40 41 41 41 42
47 48 49 49 50 51 52 53 53 54 54 54 53 53 53 52 52 51 50 49 48 47 47 47 47 47 46 44 43 42 41 41 41 41 41 41 41 41
49 50 52 52 54 55 55 56 56 56 57 57 56 55 54 53 52 51 50 50 49 48 47 47 47 46 45 44 44 43 42 41 42 42 42 41 41 41
53 55 56 56 57 57 58 58 58 58 58 57 56 55 54 53 52 51 50 50 49 48 47 46 46 46 46 44 43 42 42 41 42 42 42 41 40 40
57 57 58 59 59 59 59 59 58 58 57 56 56 55 54 53 52 51 50 49 48 47 46 45 45 45 45 43 43 42 42 41 41 41 41 40 39 39
59 59 60 60 60 60 59 58 58 57 56 55 55 54 53 52 51 50 50 49 48 47 45 44 44 43 44 43 41 42 41 39 40 40 39 39 38 38
59 59 59 59 58 58 57 56 56 55 54 53 52 51 50 49 48 47 46 46 46 45 44 43 42 42 42 42 41 39 39 38 38 38 38 38 38 38
57 57 56 56 55 54 53 52 52 50 49 48 47 45 44 44 44 44 43 43 44 44 43 42 41 41 41 41 40 38 38 39 39 38 37 38 37 37
54 53 52 50 49 48 47 46 45 44 43 42 41 40 40 41 41 41 40 40 40 40 40 40 39 39 39 39 38 37 37 37 37 37 37 37 37 36
49 48 46 45 44 44 42 41 41 39 38 38 37 36 36 36 36 36 37 37 37 37 36 36 36 36 36 37 36 36 35 35 35 35 35 36 36 36

GEFSNE_500_meanwind_102.txt.gz
Wind_Speed
10 10 11 11 11 11 11 11 12 12 11 11 11 11 12 12 12 12 13 13 14 15 16 17 18 19 20 21 22 23 24 24 25 26 27 28 29 30
13 13 14 14 14 13 13 13 14 14 14 13 13 13 13 14 14 15 15 15 15 16 17 18 18 20 21 22 22 24 25 26 27 28 28 30 31 32
16 16 16 16 16 16 16 16 16 16 16 16 16 16 16 16 16 16 17 17 18 18 18 19 19 20 21 22 23 24 25 26 27 29 30 31 32 33
19 19 19 19 19 19 18 18 18 18 18 19 19 19 19 19 19 19 19 19 20 21 21 21 21 22 22 23 24 25 26 27 28 29 31 32 33 34
22 22 21 21 21 21 21 21 21 21 21 21 22 22 22 22 22 21 21 22 22 23 23 24 24 24 24 24 25 26 27 28 29 30 31 32 33 34
24 24 24 24 24 24 24 24 24 24 24 24 24 24 24 25 25 25 25 25 25 25 26 26 26 27 27 27 27 27 27 28 29 30 31 32 33 34
27 27 27 27 27 26 26 26 27 27 27 27 27 27 27 27 28 28 28 28 28 28 28 28 29 29 29 30 30 30 30 30 30 31 31 32 33 35
29 30 29 29 29 29 29 29 29 29 30 30 30 30 30 31 31 31 31 31 31 32 31 31 32 31 32 32 32 32 33 33 33 33 33 33 34 35
30 31 31 31 32 32 32 32 32 32 33 33 33 33 33 34 35 35 35 35 34 35 35 34 34 34 34 34 35 35 35 35 35 35 35 35 35 35
33 33 34 34 35 36 36 35 35 35 36 36 36 36 37 38 38 39 38 38 38 38 38 37 37 37 37 37 37 37 37 38 38 38 37 37 37 37
34 35 36 37 38 39 38 38 37 38 39 39 39 40 40 41 42 42 43 43 42 41 42 41 40 41 40 40 40 40 40 40 40 40 40 40 40 40
37 38 39 39 40 40 40 40 40 41 42 43 43 43 44 45 46 47 47 48 47 45 45 46 45 45 44 43 44 43 43 43 43 43 43 43 43 42
39 40 41 41 42 43 43 43 44 44 45 46 46 47 48 49 50 51 52 52 51 50 49 50 50 50 49 47 47 47 47 46 46 46 46 46 46 45
41 42 43 43 45 46 47 47 47 48 48 49 50 50 51 52 53 54 55 56 56 55 54 54 54 53 53 52 51 50 50 49 49 48 49 49 48 48
42 43 44 45 45 46 48 49 50 51 52 52 53 54 55 56 57 57 57 58 58 57 57 57 56 56 56 54 53 52 51 50 50 50 50 50 50 49
43 43 44 45 46 47 48 50 52 53 54 55 55 56 57 58 59 60 60 60 60 58 58 58 58 58 57 56 56 54 53 52 51 51 51 50 49 49
43 45 46 48 49 50 51 53 54 55 56 57 58 59 59 59 59 60 60 61 61 59 58 58 59 59 59 59 58 56 55 54 53 52 52 51 49 49
46 48 49 50 51 52 53 54 55 56 57 57 58 58 59 59 59 60 61 61 60 60 59 59 60 60 60 58 57 56 56 55 54 54 53 52 50 49
48 49 51 52 53 54 54 55 56 56 56 56 56 55 56 56 57 57 58 59 58 58 58 58 58 58 58 56 53 54 54 53 53 53 52 51 50 48
50 51 52 53 54 54 55 55 54 54 53 53 53 53 53 53 53 53 53 53 53 53 52 52 52 52 52 52 50 50 50 51 51 50 50 50 48 47
51 52 52 53 53 53 52 51 51 51 50 50 50 49 49 49 49 49 48 48 48 47 47 47 47 47 48 47 47 45 46 47 47 47 47 47 46 45
51 51 51 50 49 48 47 47 47 47 47 47 46 46 46 45 45 44 44 44 44 43 42 41 42 43 43 43 43 42 42 44 45 45 44 44 43 42
48 48 46 45 44 43 43 43 43 43 43 43 42 41 41 41 41 40 39 39 38 38 38 37 37 38 38 38 37 37 38 39 40 40 39 40 40 40

GEFSNE_500_meanwind_108.txt.gz
Wind_Speed
13 13 13 13 13 13 13 13 13 13 13 13 13 13 13 13 13 13 13 13 14 14 14 15 16 17 18 19 20 21 21 22 22 23 24 24 25 25
16 16 16 16 17 17 17 17 17 16 16 16 16 16 16 16 16 16 16 17 17 17 17 17 18 18 19 20 21 22 23 24 24 25 26 27 27 27
20 20 20 20 20 20 20 20 20 19 19 19 19 18 18 19 19 20 20 20 19 19 19 20 20 20 21 21 22 23 24 25 26 27 27 28 28 29
23 24 24 24 24 24 24 23 23 22 22 22 22 22 22 22 22 22 23 23 23 23 23 23 23 23 24 24 24 25 25 26 27 27 28 29 30 30
27 28 28 28 28 27 27 27 27 26 26 26 26 26 26 26 26 25 26 26 26 26 26 26 26 26 26 26 27 27 27 28 28 28 29 30 31 31
31 31 31 31 31 31 31 30 30 29 29 29 29 29 29 29 29 29 29 29 29 29 29 29 29 29 29 29 30 30 30 30 31 31 31 31 31 32
33 34 34 34 34 34 33 33 32 32 32 32 32 31 31 32 32 32 32 32 32 32 33 33 33 33 33 33 33 33 33 33 33 33 34 34 34 34
36 36 36 36 36 36 36 36 36 35 35 35 35 35 35 35 35 35 35 35 35 36 36 36 36 36 36 36 36 36 36 36 36 36 36 36 37 37
38 38 38 39 39 39 39 38 38 38 38 39 38 38 38 38 38 38 38 39 38 39 39 39 39 39 39 39 39 39 39 39 39 39 39 39 39 39
40 40 40 40 41 41 41 41 41 42 42 42 42 42 42 42 42 42 42 42 42 42 43 42 42 42 42 43 43 43 43 43 43 43 42 42 42 42
40 40 41 41 41 42 42 43 43 44 45 45 44 44 44 45 45 45 45 45 45 45 46 46 45 46 46 46 47 47 47 47 47 47 46 46 45 45
40 40 41 42 42 43 43 44 45 46 47 46 46 47 47 47 48 48 49 49 49 48 49 51 51 52 50 49 50 51 52 51 51 50 50 50 49 49
42 42 42 43 44 45 46 45 46 47 49 49 49 49 50 51 52 52 53 53 53 53 53 54 54 55 56 54 53 54 54 54 54 53 53 53 53 52
44 45 45 45 46 47 47 47 49 50 51 51 50 51 52 54 55 56 57 57 57 56 56 57 57 57 58 58 56 55 56 56 56 56 56 56 56 56
44 45 46 46 47 48 48 49 50 51 51 51 52 53 54 56 57 58 59 59 58 58 58 59 60 61 61 61 60 59 58 57 58 59 60 59 59 58
45 46 47 48 49 49 50 51 52 52 53 54 54 55 56 57 57 58 59 59 59 59 60 62 62 63 63 63 63 61 61 60 60 61 62 63 63 62
47 48 49 49 49 51 52 52 53 55 56 56 57 57 58 58 58 58 59 60 61 61 61 61 61 62 62 63 62 62 62 62 62 62 63 63 63 63
48 48 49 50 51 53 54 54 55 56 56 57 57 57 57 57 57 58 59 59 59 59 59 59 60 60 61 60 60 61 61 61 61 62 63 63 62 62
48 49 50 50 51 52 53 53 54 54 55 55 56 55 55 56 56 56 57 57 57 57 57 57 58 58 59 58 56 58 59 59 60 60 60 60 59 58
50 50 50 51 51 51 51 51 52 53 54 54 54 54 54 54 54 54 54 54 54 53 53 53 54 55 55 54 53 52 54 55 56 55 55 55 54 54
50 50 50 51 50 50 49 50 50 51 52 52 52 52 51 51 51 51 50 50 50 50 50 50 50 51 51 51 50 48 47 48 49 48 48 48 48 47
49 49 49 48 48 48 48 48 49 48 48 47 47 47 47 47 47 47 46 46 46 46 45 44 44 45 44 44 43 42 41 41 42 42 42 42 42 41
49 49 48 48 47 47 46 46 45 45 44 44 43 43 43 43 43 43 44 44 43 42 41 40 39 39 39 39 39 38 36 36 36 36 37 38 38 37

GEFSNE_500_meanwind_114.txt.gz
Wind_Speed
12 12 12 12 13 13 13 14 14 14 14 14 14 14 15 15 15 15 14 14 15 15 15 15 15 15 16 16 17 18 18 19 20 20 21 21 22 22
16 16 16 16 16 16 17 17 17 18 18 18 18 18 18 18 18 18 17 17 17 18 17 17 17 18 18 18 18 18 19 20 20 21 22 23 24 24
20 20 20 20 20 20 21 21 21 21 21 21 21 21 21 21 21 21 21 21 20 20 20 20 20 20 21 21 21 21 21 21 21 22 23 23 24 25
23 23 23 24 24 24 24 25 25 25 25 25 25 25 25 25 25 25 25 25 24 24 24 24 24 24 24 24 24 24 24 24 24 24 25 25 25 26
25 26 26 26 27 28 28 28 29 29 29 29 29 29 29 29 29 28 28 28 28 28 27 27 28 28 28 28 28 28 28 28 28 27 27 27 27 27
28 28 29 29 30 31 31 32 32 33 33 33 32 32 32 32 32 32 32 32 31 31 31 31 31 31 31 31 31 31 31 31 31 30 30 30 30 30
31 31 32 33 33 34 34 34 35 35 35 35 35 35 35 36 35 35 35 35 35 35 35 34 34 34 34 34 34 35 35 34 34 34 33 33 33 33
33 34 35 36 36 36 37 38 38 38 37 37 38 38 38 38 38 38 38 38 38 38 38 37 38 38 38 37 37 37 38 38 37 37 36 36 36 36
36 37 37 38 39 39 39 39 40 40 40 40 40 40 40 39 39 40 40 40 40 41 41 41 42 41 41 41 40 40 40 40 40 40 40 40 40 40
38 39 39 40 39 40 41 40 40 40 41 41 41 42 42 41 41 41 42 43 43 43 44 43 44 44 44 44 43 43 44 44 44 44 44 44 44 44
38 39 39 40 40 40 40 41 41 42 42 43 43 43 44 44 44 44 45 46 46 46 46 46 47 47 47 47 47 47 47 47 47 47 47 47 47 47
38 39 40 41 42 42 43 43 44 44 45 46 45 45 46 46 46 47 47 48 48 49 50 50 50 51 50 49 50 51 51 51 52 51 51 51 51 51
41 42 42 44 45 45 45 45 45 46 47 48 47 47 48 48 48 49 49 49 49 49 50 51 50 51 52 52 52 53 54 54 55 55 55 55 55 55
42 43 44 45 46 46 47 47 48 48 49 49 50 49 49 49 49 49 50 50 49 49 49 51 51 51 52 53 53 55 56 56 56 57 57 58 58 58
44 45 46 47 48 49 49 50 49 49 49 50 50 50 51 51 51 51 52 52 52 52 53 54 54 54 55 55 55 56 56 57 57 58 59 59 60 61
46 46 47 48 48 49 49 50 51 51 51 51 52 52 52 52 53 53 53 53 54 54 55 55 54 55 55 55 54 53 53 53 54 55 56 57 58 59
47 47 48 48 50 50 49 49 50 51 51 51 52 53 53 53 53 53 54 54 54 54 54 54 53 53 53 53 52 52 52 52 53 54 54 55 55 56
48 49 49 49 50 50 51 51 51 51 52 52 52 52 52 52 53 53 53 53 53 53 53 52 52 53 52 52 52 53 53 53 53 53 53 54 54 54
49 49 49 50 50 50 50 50 50 50 50 50 51 51 50 51 51 52 51 51 51 51 50 51 51 51 51 51 51 53 53 53 53 53 53 53 53 53
49 50 50 50 50 50 50 50 50 50 50 50 50 50 50 50 50 51 50 50 49 48 48 49 49 50 51 51 50 50 51 51 51 51 51 51 51 51
49 49 49 49 49 49 49 49 49 49 49 49 49 49 49 49 49 49 48 48 47 47 46 46 46 47 48 48 48 47 48 48 48 48 48 48 48 48
48 48 48 47 47 46 46 46 46 46 46 46 46 46 46 46 46 46 46 45 44 44 43 43 43 44 45 45 44 43 43 43 44 44 44 44 44 42
45 44 44 44 43 43 43 43 43 43 43 43 43 43 43 43 43 43 42 42 41 41 41 41 41 42 41 41 41 40 39 40 40 39 39 39 38 37

GEFSNE_500_meanwind_120.txt.gz
Wind_Speed
12 12 12 12 12 12 13 13 13 13 13 14 14 14 14 14 14 14 14 13 14 13 13 13 14 14 14 14 15 15 15 15 16 16 17 17 17 17
15 15 15 15 15 16 16 16 17 17 17 17 17 17 17 17 17 17 17 17 17 17 17 17 17 17 17 17 17 17 17 17 17 17 18 18 19 19
18 18 19 19 19 19 19 20 20 21 21 21 21 21 21 21 21 21 21 21 21 21 21 21 21 20 20 20 20 21 21 21 20 20 20 21 21 21
20 20 21 21 22 22 23 23 24 24 24 24 24 24 24 24 24 24 24 24 25 25 25 25 24 24 24 24 24 24 24 24 24 24 24 24 24 24
21 22 22 23 24 25 26 26 27 28 28 27 27 28 28 28 28 28 28 28 28 28 28 28 28 28 28 28 28 28 28 28 28 28 28 28 28 27
24 24 25 26 27 28 29 29 30 30 31 31 31 31 31 31 31 31 30 31 31 31 31 32 32 32 31 32 32 32 32 32 31 31 31 31 31 31
25 26 27 28 30 31 31 32 33 33 34 34 34 34 34 34 34 34 34 34 34 34 34 34 34 35 34 34 35 35 35 35 35 34 34 34 34 34
27 29 29 30 32 34 35 35 35 35 36 37 37 37 37 38 38 38 37 36 36 37 38 37 37 36 37 37 37 37 38 38 38 37 37 37 37 36
29 30 31 32 32 34 35 36 36 36 37 38 39 39 40 40 41 41 41 40 39 39 40 40 40 40 40 39 39 40 40 40 40 40 40 40 40 40
29 30 31 32 32 34 35 36 37 38 39 39 39 41 42 42 43 44 45 44 43 43 44 44 43 43 43 43 43 42 43 43 43 43 43 43 43 43
32 32 33 34 35 36 37 38 38 39 40 41 41 42 42 43 44 45 46 47 46 45 46 46 46 45 45 45 45 45 45 45 45 45 45 45 46 46
35 36 36 37 38 39 39 41 41 42 43 43 44 44 45 45 45 46 47 47 48 47 47 49 48 48 47 47 48 48 48 47 47 47 47 47 48 48
38 38 39 40 41 41 42 43 43 44 45 46 46 47 47 47 47 47 48 48 48 48 48 49 48 48 49 47 47 48 49 49 49 48 48 48 49 49
39 40 40 41 42 43 44 44 45 46 47 47 48 48 48 49 49 49 49 50 51 51 50 50 50 50 50 49 48 48 49 50 50 50 49 50 50 50
40 40 42 43 45 46 46 47 48 48 49 49 49 50 51 51 51 51 51 51 51 51 51 51 51 51 51 51 50 49 49 50 51 51 51 51 52 52
41 43 44 45 46 47 48 48 49 49 50 50 50 51 52 52 53 53 52 52 52 52 51 51 51 51 51 51 51 50 51 51 50 51 51 51 51 51
44 46 47 48 49 49 49 49 49 49 50 51 51 52 52 53 53 53 52 52 52 51 51 51 51 51 51 51 50 51 51 50 50 50 50 50 50 51
46 48 49 50 51 51 51 51 51 52 52 53 52 52 52 52 52 52 52 51 51 51 50 50 50 49 49 49 50 50 49 49 48 48 49 49 48 49
48 49 50 51 51 51 51 52 52 52 52 52 51 51 50 50 50 49 48 49 49 50 50 50 50 50 49 48 48 49 48 47 47 47 47 47 47 48
49 50 51 51 51 51 51 51 51 51 50 50 49 49 48 48 48 48 48 48 49 49 48 49 49 49 49 48 46 46 47 47 46 46 46 46 46 46
50 50 51 50 50 50 50 50 49 49 48 48 48 48 48 47 47 47 47 47 47 46 46 46 46 47 47 46 45 44 44 44 45 44 44 44 44 45
49 49 49 49 49 49 48 48 47 47 47 46 46 46 45 45 45 45 45 44 43 43 43 43 42 42 42 42 42 42 41 42 42 43 42 42 42 41
46 46 46 45 44 43 43 43 43 43 42 42 42 41 41 41 41 40 40 39 38 38 38 38 37 38 38 39 38 38 38 38 38 38 38 39 39 38

GEFSNE_500_meanwind_126.txt.gz
Wind_Speed
12 12 11 11 11 11 11 10 10 10 10 10 11 11 12 12 12 12 12 13 13 14 14 15 15 15 15 16 16 17 18 19 19 19 19 20 21 21
15 14 14 14 14 14 14 13 13 13 14 14 14 14 15 15 16 16 17 17 17 17 18 18 18 19 19 19 20 20 21 21 21 21 22 22 22 22
17 17 16 16 17 17 17 17 17 16 16 17 17 18 18 19 19 20 20 21 21 21 21 22 22 22 23 22 23 23 24 24 24 24 24 24 25 25
19 19 19 19 19 19 19 20 20 20 20 20 21 21 22 22 22 23 23 24 24 24 25 25 25 26 26 26 27 27 27 27 28 28 28 28 28 28
21 21 21 22 22 22 22 22 23 23 23 24 24 25 25 26 26 26 26 27 27 28 28 29 29 29 30 30 31 31 31 31 31 32 32 31 31 31
22 23 24 24 24 24 25 25 25 25 26 27 28 28 29 30 30 30 30 31 31 32 32 32 32 33 33 34 34 35 35 35 35 35 35 35 35 35
23 23 24 25 25 26 26 27 27 28 29 30 30 30 31 32 32 32 33 33 33 34 35 35 36 36 36 37 38 38 38 39 39 39 39 39 38 38
23 23 24 25 26 26 27 29 30 30 31 32 32 32 33 34 35 35 35 35 35 37 38 38 39 40 41 41 42 42 42 42 42 42 42 42 42 42
26 25 26 26 27 28 29 30 31 31 32 33 34 35 35 36 37 37 38 38 38 39 41 41 43 43 44 44 45 46 46 46 46 46 46 46 46 46
27 27 27 28 29 30 31 32 33 34 35 36 37 37 38 38 39 39 40 41 41 42 44 44 44 45 46 46 48 48 48 49 49 49 49 49 50 50
28 29 30 30 31 32 33 35 36 37 37 38 39 39 40 41 41 42 43 44 44 45 46 47 46 46 46 46 48 49 50 50 51 52 52 52 52 52
30 31 32 33 34 35 36 38 39 39 39 40 40 41 42 43 44 45 46 46 47 47 48 49 49 50 49 49 50 51 51 52 52 53 53 53 53 53
32 34 34 35 36 37 38 39 39 39 40 41 42 43 44 45 47 47 48 49 49 50 51 52 52 52 53 52 52 53 54 55 55 55 55 55 55 55
35 36 37 38 39 39 39 40 41 41 42 44 45 46 47 48 48 49 50 51 52 53 54 54 54 53 53 53 53 54 55 55 56 56 56 56 56 55
36 37 38 38 39 39 39 40 43 44 45 46 47 48 49 50 50 51 52 53 54 54 55 55 55 56 56 55 54 54 54 54 55 55 55 55 55 55
36 38 38 39 39 40 42 44 45 47 49 50 51 51 52 53 53 54 55 55 55 55 56 56 56 56 56 55 54 54 54 53 53 54 54 54 55 54
38 39 39 41 42 44 45 46 48 49 51 52 53 53 54 55 55 56 56 56 55 55 54 55 55 54 54 53 53 53 52 52 53 53 53 52 52 53
39 40 41 43 45 46 48 49 51 52 53 53 54 54 54 54 54 54 54 53 53 52 52 53 53 53 53 53 54 54 53 53 53 52 52 52 52 53
41 42 44 46 47 49 50 51 52 52 53 53 53 53 53 52 51 51 51 50 50 50 51 51 51 52 52 51 52 53 53 52 52 52 52 53 52 51
44 45 47 48 49 50 51 51 51 51 51 51 51 51 50 49 49 48 47 47 47 47 48 48 48 48 48 48 47 48 49 48 48 49 50 50 50 50
46 47 48 49 50 51 52 51 51 50 50 49 49 49 48 47 46 46 45 45 45 45 44 44 44 44 44 44 44 43 44 45 44 44 44 44 44 44
48 49 49 50 50 50 50 49 49 48 47 47 46 45 44 44 43 43 42 43 43 43 42 41 41 40 40 40 39 39 39 40 41 41 41 41 40 40
47 47 47 47 46 46 45 44 44 43 43 43 42 41 41 40 40 40 40 40 39 38 38 37 37 37 36 35 34 34 34 35 35 35 35 37 37 37

GEFSNE_500_meanwind_132.txt.gz
Wind_Speed
14 14 14 13 13 13 13 13 13 13 13 14 14 14 14 14 15 15 15 15 16 16 17 18 18 18 19 19 19 20 21 22 22 23 23 23 24 24
16 15 15 15 15 16 16 16 16 16 16 17 17 17 17 17 18 18 19 19 20 20 21 21 22 22 23 23 23 23 23 24 24 25 25 25 25 26
18 19 18 18 19 19 19 19 19 19 19 20 20 20 20 20 21 22 22 23 24 24 24 25 25 26 26 26 26 26 27 27 28 28 28 28 29 29
21 21 21 22 22 22 22 22 22 22 22 22 22 23 23 24 24 25 25 26 27 27 27 27 28 28 29 29 30 30 30 31 31 31 32 32 32 32
22 22 23 23 23 24 24 24 24 24 24 24 25 25 26 27 27 28 28 29 30 30 31 31 32 32 33 33 33 33 34 35 35 36 35 35 36 35
23 23 23 23 24 24 25 26 26 26 27 27 27 28 29 30 30 31 31 32 32 33 33 34 35 36 36 37 37 38 38 39 39 39 39 39 39 39
24 23 24 24 25 25 26 27 28 28 29 29 29 30 31 32 33 34 34 34 35 36 36 37 37 38 39 40 41 41 42 42 43 43 43 43 43 43
25 25 25 26 26 27 27 28 29 30 31 31 32 33 34 35 36 36 37 37 37 38 39 40 41 41 42 43 44 44 45 46 47 46 46 46 46 47
26 27 28 28 28 28 29 30 31 32 33 34 35 36 37 38 38 39 40 40 40 41 42 42 43 44 45 46 47 47 48 48 49 50 50 50 50 50
28 28 29 30 30 31 32 33 34 35 36 37 38 39 40 41 42 42 43 43 44 45 46 46 46 47 48 49 49 50 50 51 51 51 52 52 53 53
29 30 32 32 33 35 36 36 37 39 40 40 41 42 43 44 44 44 45 46 47 48 49 49 49 50 50 51 52 53 54 54 54 54 54 54 55 55
30 31 33 33 34 35 37 38 39 40 42 43 44 44 45 45 46 47 47 48 49 50 51 52 52 53 53 52 54 55 56 56 56 56 56 55 56 56
32 32 33 35 36 38 40 40 41 42 43 44 45 46 47 47 48 49 49 50 51 53 53 55 55 56 56 56 56 57 57 57 57 57 57 56 57 56
32 34 36 37 38 40 41 42 42 43 45 46 46 47 48 49 50 51 52 52 53 55 56 57 58 59 59 59 59 58 58 59 58 58 57 57 58 57
34 35 36 37 39 41 42 43 44 45 46 47 48 49 50 51 53 54 55 57 58 59 60 61 61 61 61 61 60 59 58 57 58 57 57 57 58 58
34 36 37 39 41 42 44 44 45 46 47 48 49 50 52 53 55 56 57 58 59 60 61 61 61 60 60 59 58 58 57 56 56 56 56 57 58 59
36 38 40 41 42 43 44 46 47 48 50 50 52 53 55 56 57 58 58 58 58 58 58 59 58 58 57 56 56 56 55 55 55 55 55 55 56 56
38 39 40 42 43 44 46 48 49 50 51 53 54 55 56 57 57 58 58 58 58 58 58 57 56 54 53 53 53 53 52 52 52 52 52 52 52 52
39 40 42 43 45 46 48 49 50 51 52 54 55 56 56 57 57 57 57 56 56 55 54 53 52 51 50 50 50 51 50 50 50 49 49 50 49 49
40 42 43 45 46 48 49 50 51 52 53 53 54 54 54 54 54 53 53 52 51 50 49 48 48 47 46 46 46 46 47 47 46 46 46 45 45 44
42 43 44 46 47 48 49 49 50 50 51 51 50 50 49 49 48 48 48 47 46 45 44 44 43 43 42 42 42 41 42 43 43 41 41 41 40 39
42 44 45 46 47 47 47 47 47 47 47 46 45 45 45 44 44 44 43 43 42 41 41 40 40 40 39 39 38 38 38 38 38 37 36 35 34 33
43 44 44 44 44 45 45 44 44 43 43 43 42 42 42 42 41 41 41 40 39 39 38 38 37 37 37 37 35 34 33 33 32 32 33 32 31 30

GEFSNE_500_meanwind_138.txt.gz
Wind_Speed
15 15 15 15 15 15 14 14 14 13 13 13 14 13 13 14 14 15 15 15 16 17 17 17 18 19 20 20 21 21 22 22 22 22 22 23 24 24
18 17 17 17 17 17 17 17 17 17 17 17 17 17 17 17 17 18 18 19 19 19 20 20 21 22 22 23 23 24 25 25 25 25 25 26 26 27
19 19 19 20 19 20 20 20 20 20 21 20 20 20 21 21 21 22 22 22 22 23 23 24 24 25 25 26 27 27 27 28 28 28 29 29 30 30
21 21 21 20 21 21 22 22 22 22 23 24 24 23 24 24 24 25 25 25 26 26 26 27 27 28 29 29 29 30 30 30 31 31 32 32 33 33
22 23 23 23 23 24 24 24 24 24 25 25 26 26 26 27 27 27 28 28 29 29 30 30 31 32 32 32 33 33 33 33 34 34 35 35 36 36
24 24 24 25 25 25 25 25 26 26 27 27 28 29 29 30 30 31 31 31 32 33 33 34 35 35 36 36 37 37 37 37 37 38 39 39 40 40
26 26 25 25 26 27 27 27 28 28 29 29 30 31 31 31 32 33 34 35 36 36 37 38 38 38 39 39 40 40 41 41 42 42 42 43 43 44
27 27 27 27 27 28 28 29 30 30 31 31 31 33 34 34 35 36 37 38 38 38 39 40 41 42 43 43 43 43 44 44 45 45 46 47 47 48
28 28 28 28 28 29 30 30 31 32 32 33 34 35 36 36 37 38 38 39 40 42 42 43 44 45 46 47 47 47 47 48 48 48 48 49 50 51
27 27 27 28 29 30 31 32 34 34 34 36 37 38 40 40 41 41 42 43 44 45 46 46 47 46 46 47 47 48 49 50 51 51 51 52 53 53
27 27 29 30 31 31 33 34 34 35 36 38 39 40 42 42 42 42 43 44 45 46 47 47 47 47 48 49 50 51 52 53 53 54 54 54 55 55
28 29 30 32 33 34 35 36 37 37 37 39 39 40 41 42 43 44 46 46 47 47 48 48 49 50 51 52 52 53 54 55 56 57 57 57 58 58
31 32 33 33 35 36 36 37 38 38 39 39 40 41 43 44 45 46 47 47 47 48 50 51 52 53 54 54 55 56 56 57 58 59 60 60 60 60
33 34 34 34 34 35 36 36 37 38 39 41 42 43 45 46 47 48 49 49 50 51 52 54 55 56 57 58 58 59 60 60 60 60 59 59 59 58
31 32 33 33 34 35 36 37 37 39 41 42 44 46 47 48 49 50 50 51 52 54 55 56 57 58 58 59 59 59 59 59 58 57 55 55 55 55
31 32 34 34 35 37 39 39 40 41 43 44 46 47 48 49 50 50 52 53 54 55 56 56 57 58 58 58 58 57 57 56 55 53 53 53 53 53
34 34 35 36 37 39 39 40 42 44 45 45 47 48 49 50 51 52 53 54 54 55 55 56 56 56 55 55 55 54 53 52 51 50 51 51 51 52
34 35 36 37 39 39 40 42 43 44 45 46 47 48 49 50 51 52 52 53 53 53 53 53 53 52 51 51 51 51 50 50 49 50 50 50 50 50
34 35 36 37 39 40 41 42 43 44 45 46 47 48 49 49 50 50 50 50 50 50 49 49 48 47 47 46 47 46 45 45 45 45 45 45 46 46
35 36 37 38 39 40 41 42 43 44 45 45 46 47 47 48 48 48 48 47 46 45 45 44 44 44 43 43 42 42 42 41 41 40 40 40 40 40
36 36 37 38 39 40 41 42 43 43 43 44 45 46 46 46 46 45 44 43 42 42 42 41 41 41 40 40 40 39 39 39 38 38 38 37 37 37
34 36 37 38 39 40 40 41 42 42 42 43 43 44 44 43 42 41 41 40 40 39 39 39 39 38 38 38 38 37 37 36 36 35 35 34 33 33
35 36 37 38 38 39 39 40 40 40 41 41 41 41 40 39 38 38 37 37 37 36 36 37 36 36 36 35 35 34 34 33 33 32 31 31 30 30

GEFSNE_500_meanwind_144.txt.gz
Wind_Speed
16 16 16 16 16 16 16 15 15 15 15 14 14 14 14 14 14 15 15 16 16 16 17 17 18 18 18 19 19 19 19 20 20 21 21 22 22 22
18 18 19 19 19 18 18 18 17 17 17 17 17 18 18 18 18 19 19 19 20 20 21 21 21 21 22 22 22 22 22 23 23 24 24 24 25 25
20 21 21 21 21 21 20 21 21 21 20 21 21 21 21 21 22 23 22 23 23 24 24 25 25 25 25 25 25 25 26 26 26 26 27 27 27 27
23 23 24 23 23 23 23 23 23 23 23 23 24 23 24 24 25 25 25 25 25 26 26 27 27 28 28 29 29 29 29 30 30 30 30 30 30 30
24 24 25 25 25 25 25 25 26 26 26 26 26 27 27 27 27 28 28 28 28 28 28 29 30 31 32 32 33 33 33 33 34 34 34 34 34 35
25 26 26 27 26 27 27 27 27 27 28 29 29 30 30 30 30 30 31 31 32 31 32 32 34 34 34 35 35 35 36 37 37 38 38 38 39 39
26 26 27 27 27 27 28 29 29 30 30 31 31 31 31 32 32 33 33 33 34 34 35 35 36 36 36 36 37 38 39 39 40 41 41 42 42 42
25 26 27 27 28 29 30 30 31 31 32 32 33 33 33 34 34 34 34 35 35 36 36 37 38 39 39 40 40 41 41 42 42 42 42 43 44 45
26 27 27 28 29 30 31 32 32 33 33 33 34 34 35 35 36 36 37 38 38 38 38 39 40 41 41 41 42 43 43 44 44 44 45 45 46 47
26 27 28 29 29 30 31 31 32 33 33 34 35 36 37 37 38 38 38 40 41 41 41 42 43 43 43 43 44 45 45 46 47 48 48 49 50 51
28 28 29 29 31 32 32 32 32 33 35 36 37 38 38 39 39 41 41 42 42 43 43 44 44 44 45 46 47 47 48 49 49 50 51 52 53 53
29 30 31 31 32 33 33 33 34 34 35 36 37 38 39 40 41 41 42 43 44 45 45 46 46 46 47 49 50 50 51 51 52 52 52 53 53 53
31 32 32 32 33 33 34 35 36 36 36 36 36 37 39 41 41 41 42 43 44 45 45 46 47 48 49 50 51 52 53 53 54 54 54 54 55 55
30 31 32 32 33 34 35 36 36 36 36 37 37 37 38 39 40 41 42 43 44 45 46 47 49 50 51 52 52 53 54 55 56 56 56 56 56 57
31 32 32 32 33 34 35 35 35 36 37 38 38 39 40 41 42 42 43 44 46 47 49 50 51 52 53 53 54 54 54 54 55 55 55 54 54 54
31 32 32 32 33 34 34 35 36 37 38 39 40 40 41 42 43 44 45 46 47 49 50 50 51 52 52 53 53 53 52 52 52 52 51 51 51 51
31 31 32 34 34 35 35 36 38 39 40 41 41 41 42 43 44 45 46 47 48 49 49 50 51 51 51 51 50 50 50 50 49 49 48 48 48 49
32 34 35 36 37 36 37 37 39 40 41 42 41 42 43 44 44 45 46 46 47 48 49 49 48 48 47 47 48 47 47 46 46 46 45 45 45 45
33 34 35 36 36 36 37 38 40 40 41 41 41 42 43 43 44 45 45 46 46 46 46 46 45 45 45 44 44 45 44 44 43 43 44 44 44 43
32 33 33 34 35 37 38 39 40 40 40 41 41 42 42 43 44 44 44 44 45 45 45 44 44 44 43 43 42 42 43 42 41 41 41 42 42 41
31 32 33 35 36 37 38 39 39 40 40 40 40 41 41 42 42 42 42 43 43 43 42 42 41 40 40 40 40 39 39 39 39 38 38 38 38 38
31 33 34 35 36 37 37 37 38 38 38 39 39 39 40 40 40 40 40 40 40 39 38 37 37 36 36 36 36 35 35 35 35 35 35 35 34 33
33 34 35 35 35 36 36 36 37 37 37 37 37 37 37 38 38 38 38 37 36 35 34 34 34 33 33 33 33 32 32 33 33 32 32 31 30 30